Cloud_Cover
21 1 0 0 0 0 0 0 0 0 0 0 0 0 0 0 0 0 0 0 0 0 0 0 8 2 0 0 0 0 0 0 0 0 0 0 0 3 4 0 0 4 5
0 22 1 0 0 0 0 0 0 0 0 0 0 0 0 0 0 0 0 0 0 0 0 1 1 0 0 0 4 5 0 2 4 0 0 0 6 6 2 2 6 4 87
0 10 4 0 0 0 0 0 0 0 0 0 0 0 0 0 0 0 0 0 0 0 4 4 0 0 0 0 0 0 0 0 0 0 0 0 0 1 96 100 100 100 100
0 4 12 0 0 0 0 0 0 0 0 0 0 0 0 0 0 0 0 0 0 0 0 0 0 0 0 0 0 0 0 0 0 0 0 0 1 12 100 100 100 100 100
0 0 5 1 0 0 0 0 0 0 0 0 0 0 0 0 0 0 0 0 0 0 0 0 2 1 0 0 0 0 0 0 0 0 0 1 2 99 100 63 100 100 100
0 0 0 1 5 0 0 0 0 2 0 0 0 0 0 0 0 0 0 0 0 0 0 0 0 0 0 0 0 0 0 0 0 0 0 0 0 79 100 100 100 100 100
0 0 0 4 4 1 4 0 0 53 6 12 26 4 0 0 0 0 0 1 0 0 0 0 0 0 0 0 0 0 0 0 0 0 0 0 0 0 69 100 100 100 98
8 8 1 4 5 4 0 2 5 4 5 100 98 4 0 0 0 0 0 2 4 0 0 0 0 0 0 0 0 0 0 0 0 0 0 0 0 0 11 100 100 100 100
99 7 7 49 90 9 44 79 27 5 5 5 1 5 2 0 1 5 2 66 96 27 1 0 4 0 0 0 0 0 0 0 0 0 0 0 0 4 5 100 100 95 66
99 100 100 70 46 30 57 46 22 16 3 5 7 100 7 1 83 100 100 86 100 24 85 6 37 0 0 0 0 0 8 4 4 1 0 4 0 1 5 100 100 100 54
3 1 6 14 20 22 27 38 36 21 9 5 25 96 55 44 100 100 100 100 100 100 100 100 100 80 0 5 0 0 1 25 23 21 19 1 0 0 0 16 100 100 100
5 3 15 17 22 18 6 95 93 70 55 37 30 60 70 70 100 100 100 100 100 100 100 100 100 99 22 21 16 10 33 8 20 17 17 0 0 0 0 0 14 100 100
1 5 34 18 20 26 9 41 66 100 100 100 86 71 100 100 100 100 100 100 100 100 100 100 100 100 100 53 34 37 30 16 25 20 0 0 0 0 0 3 0 27 100
4 5 63 27 28 27 22 35 40 77 99 100 100 100 100 100 100 100 100 100 100 100 100 100 100 92 86 36 21 29 28 26 25 22 2 14 0 0 0 0 0 3 24
4 44 56 87 41 35 25 29 31 100 100 100 100 100 100 100 100 100 100 100 100 100 100 100 100 100 100 78 43 19 21 15 90 47 66 77 5 0 0 0 0 9 100
0 15 92 100 100 88 75 72 51 36 100 100 100 91 100 100 100 100 100 100 100 100 100 100 100 100 100 100 89 41 62 56 10 60 75 98 64 5 0 0 0 19 100
4 0 49 4 0 11 26 8 9 79 100 100 100 100 100 100 100 100 100 100 100 100 100 100 100 97 100 100 100 100 100 100 100 61 60 29 93 96 6 0 0 0 46
0 4 0 3 2 1 9 5 5 0 22 67 99 100 100 100 100 100 100 100 100 100 100 100 100 100 100 100 100 100 100 100 99 21 96 36 100 100 51 3 0 0 0
0 0 2 1 1 0 0 4 0 0 0 6 98 76 100 100 100 100 100 100 100 100 100 100 100 100 100 100 100 100 100 100 97 39 12 55 11 95 100 77 4 0 3
4 5 0 0 0 0 0 0 0 0 0 0 2 26 13 5 100 100 100 100 100 100 100 100 100 100 100 100 100 100 100 100 100 100 73 100 24 6 72 100 57 6 0
3 0 4 2 0 0 0 0 0 0 0 0 0 0 0 76 100 100 100 100 100 100 100 100 100 100 100 100 100 100 100 100 100 100 100 100 35 100 12 14 100 18 17
32 2 0 0 0 0 44 4 0 0 0 0 0 0 0 1 47 100 100 100 100 100 100 100 100 100 100 100 100 100 100 100 100 100 100 100 91 100 50 9 84 96 93
99 29 5 5 14 23 0 76 47 3 0 1 0 0 0 0 5 93 100 100 100 100 100 100 100 100 100 100 100 100 100 100 100 100 100 100 100 100 100 90 10 92 89
98 89 100 98 69 87 4 5 81 100 92 17 5 4 2 0 0 5 100 100 100 100 100 100 100 100 100 100 100 100 100 100 100 100 100 100 100 100 98 69 100 83 100
100 100 100 93 96 100 98 51 26 74 100 100 97 14 5 4 1 0 6 97 100 100 99 98 100 26 100 100 100 100 100 100 100 100 100 100 100 100 100 100 100 100 100
100 100 100 100 99 91 44 5 9 5 7 60 87 99 67 56 5 0 0 1 1 36 74 98 100 97 100 100 100 100 100 100 100 100 100 100 100 100 100 100 100 100 100